Date String (YYYY-MM-DD hh:mm:ss) UTC,Instrument flags,Ambient pressure (hPa),Sample flow (lpm),Bypass flow (lpm),Sample temperature (°C),Ambient temperature (°C),ASC tube jacket temperature (°C),LED temperature (°C),Box temperature (°C),Sample RH (%),Span deviation,Mass concentration (μg/m³),Mass concentration (μg/m³),Mass concentration (μg/m³)
DateTimeUTC,F1_M11,P_M11,Q1_M11,Q2_M11,T1_M11,T2_M11,T3_M11,T4_M11,T5_M11,U1_M11,ZSPAN_M11,X0_M11,X2_M11,X1_M11
2022-04-23 09:00:00,,0808.9,5.00,0.00,24.6,23.4,00.0,33.6,26.3,11.4,0000.0,0002.89,0000.61,0000.23
2022-04-23 09:01:00,,0808.9,4.99,0.00,24.6,23.4,00.0,33.6,26.3,11.3,0000.0,0002.96,0000.64,0000.23
2022-04-23 09:02:00,,0808.8,5.00,0.00,24.6,23.4,00.0,33.6,26.3,11.2,0000.0,0002.97,0000.63,0000.22
2022-04-23 09:03:00,,0808.7,5.00,0.00,24.6,23.4,00.0,33.6,26.3,10.7,0000.0,0002.95,0000.64,0000.22
2022-04-23 09:04:00,,0808.8,5.00,0.00,24.6,23.4,00.0,33.6,26.3,10.6,0000.0,0002.94,0000.65,0000.21
2022-04-23 09:05:00,,0808.5,5.00,0.00,24.6,23.4,00.0,33.6,26.3,11.0,0000.0,0002.77,0000.60,0000.21
2022-04-23 09:06:00,,0808.6,5.00,0.00,24.6,23.4,00.0,33.6,26.4,11.5,0000.0,0002.78,0000.58,0000.20
2022-04-23 09:07:00,,0808.8,4.99,0.00,24.6,23.4,00.0,33.6,26.3,11.6,0000.0,0002.94,0000.62,0000.21
2022-04-23 09:08:00,,0808.9,5.02,0.00,24.5,23.5,00.0,33.6,26.3,11.7,0000.0,0003.37,0000.66,0000.20
2022-04-23 09:09:00,,0808.9,4.98,0.00,24.5,23.4,00.0,33.6,26.2,11.7,0000.0,0003.38,0000.66,0000.19
2022-04-23 09:10:00,,0808.6,5.01,0.00,24.5,23.4,00.0,33.6,26.2,11.7,0000.0,0004.18,0000.67,0000.19
2022-04-23 09:11:00,,0808.6,4.99,0.00,24.5,23.4,00.0,33.5,26.2,11.6,0000.0,0003.89,0000.68,0000.19
2022-04-23 09:12:00,,0808.6,4.99,0.00,24.4,23.4,00.0,33.5,26.2,11.6,0000.0,0003.99,0000.65,0000.17
2022-04-23 09:13:00,,0808.7,5.01,0.00,24.4,23.4,00.0,33.5,26.2,11.7,0000.0,0004.01,0000.65,0000.17
2022-04-23 09:14:00,,0808.9,4.99,0.00,24.4,23.3,00.0,33.5,26.1,11.8,0000.0,0003.90,0000.59,0000.15
2022-04-23 09:15:00,,0809.0,5.02,0.00,24.4,23.3,00.0,33.5,26.1,11.9,0000.0,0004.56,0000.58,0000.15
2022-04-23 09:16:00,,0808.8,4.99,0.00,24.4,23.3,00.0,33.5,26.1,12.1,0000.0,0004.55,0000.56,0000.14
2022-04-23 09:17:00,,0808.7,5.01,0.00,24.3,23.3,00.0,33.5,26.1,11.9,0000.0,0004.49,0000.54,0000.14
2022-04-23 09:18:00,,0808.9,4.99,0.00,24.3,23.3,00.0,33.5,26.0,11.7,0000.0,0004.32,0000.50,0000.13
2022-04-23 09:19:00,,0808.9,5.01,0.00,24.3,23.3,00.0,33.5,26.0,11.6,0000.0,0003.82,0000.44,0000.13
2022-04-23 09:20:00,,0809.0,4.98,0.00,24.3,23.3,00.0,33.4,26.1,11.7,0000.0,0003.73,0000.39,0000.12
2022-04-23 09:21:00,,0809.0,5.01,0.00,24.3,23.2,00.0,33.4,26.0,11.6,0000.0,0002.89,0000.39,0000.12
2022-04-23 09:22:00,,0809.0,4.99,0.00,24.3,23.2,00.0,33.4,26.0,11.7,0000.0,0002.03,0000.35,0000.11
2022-04-23 09:23:00,,0809.1,5.02,0.00,24.3,23.2,00.0,33.4,26.0,11.9,0000.0,0001.71,0000.33,0000.11
2022-04-23 09:24:00,,0809.0,5.00,0.00,24.3,23.1,00.0,33.4,26.0,12.0,0000.0,0001.61,0000.31,0000.10
2022-04-23 09:25:00,,0809.0,5.01,0.00,24.3,23.1,00.0,33.4,26.0,12.0,0000.0,0001.61,0000.31,0000.11
2022-04-23 09:26:00,,0809.0,4.99,0.00,24.3,23.1,00.0,33.4,26.0,11.9,0000.0,0000.94,0000.29,0000.10
2022-04-23 09:27:00,,0809.0,5.01,0.00,24.3,23.1,00.0,33.4,26.0,11.9,0000.0,0000.92,0000.30,0000.10
2022-04-23 09:28:00,,0809.1,5.00,0.00,24.3,23.1,00.0,33.4,25.9,12.0,0000.0,0001.59,0000.30,0000.10
2022-04-23 09:29:00,,0809.1,5.00,0.00,24.3,23.0,00.0,33.3,25.9,12.1,0000.0,0001.65,0000.29,0000.10
2022-04-23 09:30:00,,0809.0,4.99,0.00,24.3,23.0,00.0,33.3,26.0,12.2,0000.0,0001.71,0000.31,0000.10
2022-04-23 09:31:00,,0808.9,5.00,0.00,24.3,23.1,00.0,33.3,26.0,12.1,0000.0,0001.77,0000.34,0000.10
2022-04-23 09:32:00,,0809.0,5.00,0.00,24.3,23.1,00.0,33.3,25.9,11.8,0000.0,0001.69,0000.33,0000.09
2022-04-23 09:33:00,,0809.0,4.99,0.00,24.2,23.1,00.0,33.3,25.9,11.7,0000.0,0001.70,0000.35,0000.09
2022-04-23 09:34:00,,0809.0,5.01,0.00,24.2,23.1,00.0,33.3,26.0,11.6,0000.0,0001.69,0000.35,0000.09
2022-04-23 09:35:00,,0809.1,4.98,0.00,24.2,23.1,00.0,33.3,26.0,11.5,0000.0,0001.67,0000.34,0000.09
2022-04-23 09:36:00,,0809.1,5.02,0.00,24.2,23.0,00.0,33.3,25.9,11.8,0000.0,0001.61,0000.34,0000.09
2022-04-23 09:37:00,,0809.2,4.99,0.00,24.2,23.0,00.0,33.3,25.9,11.7,0000.0,0001.63,0000.35,0000.10
2022-04-23 09:38:00,,0809.1,5.01,0.00,24.2,23.0,00.0,33.3,25.9,11.9,0000.0,0001.91,0000.35,0000.10
2022-04-23 09:39:00,,0809.0,5.01,0.00,24.2,23.1,00.0,33.3,26.0,12.1,0000.0,0001.71,0000.34,0000.09
2022-04-23 09:40:00,,0809.2,4.99,0.00,24.2,23.0,00.0,33.3,25.9,12.0,0000.0,0001.81,0000.38,0000.09
2022-04-23 09:41:00,,0809.2,5.01,0.00,24.2,22.9,00.0,33.2,25.8,12.0,0000.0,0001.84,0000.38,0000.09
2022-04-23 09:42:00,,0809.2,5.01,0.00,24.2,22.9,00.0,33.2,25.9,12.3,0000.0,0001.97,0000.40,0000.09
2022-04-23 09:43:00,,0809.1,4.99,0.00,24.2,22.9,00.0,33.2,25.9,12.3,0000.0,0001.93,0000.39,0000.09
2022-04-23 09:44:00,,0809.0,5.01,0.00,24.2,22.9,00.0,33.2,25.8,12.5,0000.0,0002.00,0000.39,0000.09
2022-04-23 09:45:00,,0809.1,4.98,0.00,24.2,23.0,00.0,33.2,25.9,12.5,0000.0,0002.07,0000.40,0000.09
2022-04-23 09:46:00,,0809.2,5.02,0.00,24.2,23.0,00.0,33.2,25.9,12.4,0000.0,0001.99,0000.39,0000.09
2022-04-23 09:47:00,,0809.2,4.99,0.00,24.1,23.0,00.0,33.2,25.7,12.6,0000.0,0002.96,0000.42,0000.09
2022-04-23 09:48:00,,0809.2,4.99,0.00,24.1,22.9,00.0,33.2,25.7,12.6,0000.0,0002.95,0000.40,0000.08
2022-04-23 09:49:00,,0809.2,5.01,0.00,24.1,23.0,00.0,33.2,25.7,12.9,0000.0,0002.88,0000.43,0000.08
2022-04-23 09:50:00,,0809.1,4.99,0.00,24.0,23.0,00.0,33.2,25.7,12.6,0000.0,0002.47,0000.42,0000.08
2022-04-23 09:51:00,,0809.0,4.99,0.00,24.0,23.0,00.0,33.2,25.7,12.7,0000.0,0002.20,0000.38,0000.07
2022-04-23 09:52:00,,0809.0,5.01,0.00,24.0,23.0,00.0,33.1,25.6,12.7,0000.0,0002.19,0000.36,0000.07
2022-04-23 09:53:00,,0809.0,5.00,0.00,23.9,23.0,00.0,33.1,25.6,12.6,0000.0,0002.15,0000.36,0000.07
2022-04-23 09:54:00,,0809.0,5.00,0.00,24.0,23.0,00.0,33.1,25.6,12.5,0000.0,0002.22,0000.37,0000.08
2022-04-23 09:55:00,,0809.1,5.02,0.00,24.0,23.0,00.0,33.1,25.6,12.4,0000.0,0002.22,0000.39,0000.08
2022-04-23 09:56:00,,0809.0,4.99,0.00,24.0,23.1,00.0,33.1,25.7,12.0,0000.0,0002.25,0000.41,0000.08
2022-04-23 09:57:00,,0809.1,4.99,0.00,24.0,23.1,00.0,33.1,25.7,12.0,0000.0,0002.25,0000.40,0000.08
2022-04-23 09:58:00,,0809.1,5.01,0.00,24.0,23.1,00.0,33.1,25.7,12.2,0000.0,0001.36,0000.36,0000.07
2022-04-23 09:59:00,,0809.1,5.01,0.00,24.0,23.1,00.0,33.1,25.7,12.3,0000.0,0001.27,0000.37,0000.08
